User: anonymous   Login
Location: Salamanca
(40.9670°N, 5.6500°W)
Time: 04:12:02
(UTC+02:00)
Language:

Cosmos 1633 Rocket - Orbit

View from above orbital plane
View from above orbital plane
View from above satellite
View from above satellite

Ground track
Ground track

The orbit data is extracted from the following two-line orbital elements,

1 15593U 85020B   18170.44801413 +.00000075 +00000-0 +60605-5 0  9994
2 15593 082.5387 278.9649 0010091 266.3411 139.7402 14.84324059777688
Epoch (UTC): 19 June 2018 10:45:08
Eccentricity: 0.0010091
inclination: 82.5387°
perigee height: 608 km
apogee height: 623 km
right ascension of ascending node: 278.9649°
argument of perigee: 266.3411°
revolutions per day: 14.84324059
mean anomaly at epoch: 139.7402°
orbit number at epoch: 77768

The dashed part of the orbit path shows where the satellite is in the earth's shadow,  

DLR